RYR3DV EBCI-LATI

Flight info

Callsign RYR3DV
Flight time 2h 5m
Altitude 37000
Route SOPOK Y863 OGLOR DCT EMGOD L607 ULNOK DCT VIBOM DCT NOMBO DCT RIDAR DCT RADIZ DCT GORPA DCT EVTON DCT AKIKA/N0395F180 T8 INLOT
Aircraft B38M/M-SDE1FGHILORVWXY/HB1

Departure

Time 2026-05-07 11:59
Airport Brussels South Charleroi Airport (EBCI)

Arrival

Time 2026-05-07 14:04
Airport Tirana International Airport Mother Teresa (LATI)
Time Latitude Longitude Altitude Speed Heading
2026-05-07 11:19 50.46923 4.47290 627 ft 0 kts 335°
2026-05-07 11:48 50.46922 4.47291 615 ft 0 kts 335°
2026-05-07 11:49 50.46909 4.47300 623 ft 2 kts 335°
2026-05-07 11:49 50.46894 4.47311 623 ft 2 kts 340°
2026-05-07 11:49 50.46879 4.47311 624 ft 2 kts 22°
2026-05-07 11:49 50.46867 4.47295 627 ft 2 kts 61°
2026-05-07 11:50 50.46865 4.47290 626 ft 0 kts 63°
2026-05-07 11:54 50.46869 4.47304 633 ft 2 kts 63°
2026-05-07 11:54 50.46879 4.47336 623 ft 4 kts 66°
2026-05-07 11:54 50.46894 4.47386 622 ft 6 kts 66°
2026-05-07 11:55 50.46914 4.47455 617 ft 8 kts 65°
2026-05-07 11:55 50.46936 4.47536 621 ft 7 kts 76°
2026-05-07 11:55 50.46915 4.47607 624 ft 8 kts 146°
2026-05-07 11:55 50.46867 4.47647 615 ft 6 kts 155°
2026-05-07 11:56 50.46829 4.47675 617 ft 6 kts 156°
2026-05-07 11:56 50.46816 4.47684 620 ft 0 kts 155°
2026-05-07 11:57 50.46807 4.47690 623 ft 4 kts 156°
2026-05-07 11:57 50.46757 4.47724 624 ft 10 kts 162°
2026-05-07 11:57 50.46688 4.47692 622 ft 12 kts 232°
2026-05-07 11:57 50.46671 4.47643 621 ft 0 kts 245°
2026-05-07 11:58 50.46622 4.47475 622 ft 52 kts 245°
2026-05-07 11:59 50.46359 4.46574 624 ft 128 kts 246°
2026-05-07 11:59 50.45904 4.45009 695 ft 179 kts 248°
2026-05-07 11:59 50.45405 4.43125 1394 ft 197 kts 249°
2026-05-07 11:59 50.44850 4.41071 2251 ft 211 kts 246°
2026-05-07 12:00 50.44207 4.38802 2745 ft 247 kts 246°
2026-05-07 12:00 50.43459 4.36207 3523 ft 267 kts 245°
2026-05-07 12:00 50.42674 4.33570 4940 ft 265 kts 245°
2026-05-07 12:00 50.41936 4.30921 6156 ft 267 kts 246°
2026-05-07 12:01 50.41186 4.28219 7191 ft 269 kts 248°
2026-05-07 12:01 50.40753 4.25339 8171 ft 278 kts 269°
2026-05-07 12:01 50.41211 4.22407 9042 ft 286 kts 299°
2026-05-07 12:01 50.42625 4.20239 9996 ft 286 kts 330°
2026-05-07 12:02 50.44468 4.19000 10828 ft 295 kts 339°
2026-05-07 12:02 50.46474 4.17900 11241 ft 316 kts 346°
2026-05-07 12:02 50.48729 4.17878 11651 ft 337 kts 12°
2026-05-07 12:02 50.50909 4.19316 12080 ft 354 kts 30°
2026-05-07 12:03 50.53121 4.21305 12580 ft 367 kts 28°
2026-05-07 12:03 50.55363 4.23272 13403 ft 370 kts 28°
2026-05-07 12:03 50.57596 4.25219 14123 ft 375 kts 28°
2026-05-07 12:03 50.59889 4.27216 14808 ft 378 kts 28°
2026-05-07 12:04 50.62184 4.29277 15501 ft 382 kts 34°
2026-05-07 12:04 50.64107 4.32180 16166 ft 387 kts 54°
2026-05-07 12:04 50.65408 4.35922 16804 ft 391 kts 65°
2026-05-07 12:04 50.66575 4.39833 17404 ft 396 kts 65°
2026-05-07 12:05 50.67740 4.43786 18033 ft 400 kts 65°
2026-05-07 12:05 50.68907 4.47789 18609 ft 404 kts 65°
2026-05-07 12:05 50.70078 4.51828 19175 ft 407 kts 65°
2026-05-07 12:05 50.71153 4.55976 19718 ft 410 kts 75°
2026-05-07 12:06 50.71499 4.60418 20286 ft 412 kts 93°
2026-05-07 12:06 50.71037 4.64878 20786 ft 414 kts 106°
2026-05-07 12:06 50.70256 4.69270 21283 ft 417 kts 107°
2026-05-07 12:06 50.69440 4.73674 21809 ft 420 kts 107°
2026-05-07 12:07 50.68596 4.78102 22317 ft 423 kts 108°
2026-05-07 12:07 50.67732 4.82554 22820 ft 426 kts 108°
2026-05-07 12:07 50.66855 4.87026 23314 ft 429 kts 108°
2026-05-07 12:07 50.65968 4.91530 23772 ft 432 kts 108°
2026-05-07 12:08 50.65074 4.96051 24183 ft 434 kts 108°
2026-05-07 12:08 50.64172 5.00607 24587 ft 437 kts 108°
2026-05-07 12:08 50.63261 5.05195 24985 ft 440 kts 108°
2026-05-07 12:08 50.62344 5.09803 25379 ft 442 kts 108°
2026-05-07 12:09 50.61419 5.14440 25764 ft 445 kts 108°
2026-05-07 12:09 50.60489 5.19092 26163 ft 447 kts 108°
2026-05-07 12:09 50.59351 5.23647 26521 ft 448 kts 120°
2026-05-07 12:09 50.57491 5.27559 26916 ft 448 kts 134°
2026-05-07 12:10 50.55326 5.31080 27209 ft 451 kts 135°
2026-05-07 12:10 50.53113 5.34608 27585 ft 453 kts 136°
2026-05-07 12:10 50.50876 5.38120 27926 ft 456 kts 136°
2026-05-07 12:10 50.48614 5.41633 28259 ft 458 kts 136°
2026-05-07 12:11 50.46336 5.45151 28611 ft 461 kts 136°
2026-05-07 12:11 50.44043 5.48682 28929 ft 463 kts 136°
2026-05-07 12:11 50.41769 5.52179 29252 ft 465 kts 136°
2026-05-07 12:11 50.39422 5.55783 29578 ft 467 kts 136°
2026-05-07 12:12 50.37102 5.59340 29897 ft 469 kts 136°
2026-05-07 12:12 50.34799 5.62865 30310 ft 469 kts 136°
2026-05-07 12:12 50.32467 5.66431 30675 ft 468 kts 136°
2026-05-07 12:12 50.30141 5.69982 31047 ft 468 kts 136°
2026-05-07 12:13 50.27814 5.73545 31405 ft 467 kts 135°
2026-05-07 12:13 50.25834 5.77554 31740 ft 467 kts 119°
2026-05-07 12:13 50.24602 5.82237 32096 ft 467 kts 106°
2026-05-07 12:13 50.23717 5.87124 32384 ft 468 kts 106°
2026-05-07 12:14 50.22852 5.91996 32695 ft 468 kts 105°
2026-05-07 12:14 50.21999 5.96912 33065 ft 468 kts 105°
2026-05-07 12:14 50.21160 6.01818 33419 ft 467 kts 104°
2026-05-07 12:14 50.20326 6.06709 33758 ft 466 kts 104°
2026-05-07 12:15 50.19772 6.09951 33972 ft 466 kts 104°
2026-05-07 12:15 50.18936 6.14844 34244 ft 466 kts 104°
2026-05-07 12:15 50.18432 6.19823 34487 ft 465 kts 89°
2026-05-07 12:15 50.18646 6.24842 34740 ft 464 kts 85°
2026-05-07 12:16 50.18912 6.29854 34909 ft 466 kts 84°
2026-05-07 12:16 50.19198 6.34882 35164 ft 466 kts 84°
2026-05-07 12:16 50.19500 6.39936 35402 ft 467 kts 84°
2026-05-07 12:16 50.19806 6.44973 35632 ft 467 kts 84°
2026-05-07 12:17 50.20114 6.50031 35815 ft 469 kts 84°
2026-05-07 12:17 50.20421 6.55100 36026 ft 469 kts 84°
2026-05-07 12:17 50.20727 6.60177 36279 ft 469 kts 84°
2026-05-07 12:17 50.20932 6.65254 36465 ft 470 kts 91°
2026-05-07 12:18 50.20857 6.70326 36705 ft 469 kts 91°
2026-05-07 12:18 50.20780 6.75416 36902 ft 470 kts 92°
2026-05-07 12:18 50.20692 6.80522 37042 ft 471 kts 92°
2026-05-07 12:19 50.20506 6.90733 37035 ft 469 kts 92°
2026-05-07 12:19 50.20311 7.00914 37056 ft 470 kts 92°
2026-05-07 12:20 50.20107 7.11079 37054 ft 469 kts 92°
2026-05-07 12:20 50.19893 7.21275 37042 ft 470 kts 92°
2026-05-07 12:21 50.19626 7.31472 37035 ft 470 kts 98°
2026-05-07 12:21 50.18835 7.36383 37055 ft 465 kts 110°
2026-05-07 12:21 50.17847 7.41132 37024 ft 469 kts 108°
2026-05-07 12:22 50.15838 7.50878 37054 ft 470 kts 109°
2026-05-07 12:22 50.13788 7.60553 37043 ft 470 kts 109°
2026-05-07 12:23 50.11725 7.70217 37047 ft 470 kts 109°
2026-05-07 12:23 50.09654 7.79873 37035 ft 470 kts 109°
2026-05-07 12:24 50.07535 7.89467 37022 ft 468 kts 116°
2026-05-07 12:24 50.04145 7.97843 37013 ft 467 kts 124°
2026-05-07 12:25 50.00543 8.06240 37056 ft 467 kts 125°
2026-05-07 12:25 49.96903 8.14585 37038 ft 466 kts 125°
2026-05-07 12:26 49.93256 8.22907 37020 ft 467 kts 126°
2026-05-07 12:26 49.89602 8.31219 37020 ft 467 kts 126°
2026-05-07 12:27 49.85937 8.39533 37018 ft 467 kts 126°
2026-05-07 12:27 49.81930 8.47444 37036 ft 467 kts 130°
2026-05-07 12:28 49.77883 8.55288 37034 ft 466 kts 130°
2026-05-07 12:28 49.73848 8.63135 37030 ft 467 kts 130°
2026-05-07 12:29 49.69804 8.70980 37038 ft 466 kts 130°
2026-05-07 12:29 49.65763 8.78796 37030 ft 467 kts 130°
2026-05-07 12:30 49.61711 8.86611 37020 ft 467 kts 130°
2026-05-07 12:30 49.57642 8.94436 37027 ft 467 kts 130°
2026-05-07 12:31 49.53572 9.02238 37022 ft 467 kts 130°
2026-05-07 12:31 49.49501 9.10022 37025 ft 468 kts 130°
2026-05-07 12:32 49.45592 9.18019 37027 ft 468 kts 125°
2026-05-07 12:32 49.42007 9.26388 37019 ft 469 kts 125°
2026-05-07 12:33 49.36644 9.38947 37023 ft 469 kts 125°
2026-05-07 12:33 49.33061 9.47309 37022 ft 470 kts 125°
2026-05-07 12:34 49.29461 9.55684 37021 ft 470 kts 125°
2026-05-07 12:34 49.25857 9.64041 37022 ft 470 kts 125°
2026-05-07 12:35 49.22255 9.72368 37022 ft 470 kts 125°
2026-05-07 12:35 49.18639 9.80700 37043 ft 470 kts 126°
2026-05-07 12:36 49.15017 9.89022 37046 ft 470 kts 126°
2026-05-07 12:36 49.11410 9.97284 37045 ft 470 kts 126°
2026-05-07 12:37 49.07788 10.05559 37027 ft 470 kts 126°
2026-05-07 12:37 49.03549 10.13037 37050 ft 467 kts 137°
2026-05-07 12:38 48.98964 10.20061 37030 ft 467 kts 137°
2026-05-07 12:38 48.94368 10.27037 37039 ft 467 kts 137°
2026-05-07 12:39 48.89774 10.33985 37038 ft 467 kts 137°
2026-05-07 12:39 48.85158 10.40949 37043 ft 467 kts 137°
2026-05-07 12:40 48.80543 10.47891 37040 ft 467 kts 137°
2026-05-07 12:40 48.75913 10.54835 37014 ft 467 kts 138°
2026-05-07 12:41 48.71320 10.61709 37033 ft 468 kts 138°
2026-05-07 12:41 48.66687 10.68621 37024 ft 468 kts 138°
2026-05-07 12:42 48.62051 10.75521 37029 ft 468 kts 138°
2026-05-07 12:42 48.57584 10.82679 37027 ft 469 kts 132°
2026-05-07 12:43 48.53458 10.90301 37019 ft 471 kts 132°
2026-05-07 12:43 48.49327 10.97959 37008 ft 470 kts 132°
2026-05-07 12:44 48.45200 11.05589 37014 ft 470 kts 132°
2026-05-07 12:44 48.41061 11.13218 37017 ft 470 kts 132°
2026-05-07 12:45 48.36931 11.20811 37025 ft 470 kts 132°
2026-05-07 12:45 48.32800 11.28385 37023 ft 469 kts 132°
2026-05-07 12:46 48.28656 11.35959 36981 ft 468 kts 133°
2026-05-07 12:46 48.24530 11.43481 37023 ft 469 kts 133°
2026-05-07 12:47 48.20377 11.51030 37021 ft 469 kts 133°
2026-05-07 12:47 48.16223 11.58560 37014 ft 469 kts 133°
2026-05-07 12:48 48.12072 11.66063 37010 ft 468 kts 133°
2026-05-07 12:48 48.07924 11.73539 37006 ft 467 kts 133°
2026-05-07 12:49 48.03761 11.81022 36995 ft 468 kts 133°
2026-05-07 12:49 47.99590 11.88500 37001 ft 468 kts 133°
2026-05-07 12:50 47.95415 11.95963 36990 ft 468 kts 134°
2026-05-07 12:50 47.91273 12.03346 36993 ft 468 kts 134°
2026-05-07 12:51 47.87090 12.10784 36999 ft 468 kts 134°
2026-05-07 12:51 47.82901 12.18209 37000 ft 468 kts 134°
2026-05-07 12:52 47.78710 12.25619 37003 ft 468 kts 134°
2026-05-07 12:52 47.74521 12.33004 37008 ft 468 kts 134°
2026-05-07 12:53 47.70313 12.40406 36994 ft 468 kts 134°
2026-05-07 12:53 47.66101 12.47797 36994 ft 469 kts 134°
2026-05-07 12:54 47.61823 12.55061 37000 ft 467 kts 137°
2026-05-07 12:54 47.57394 12.62084 36985 ft 467 kts 136°
2026-05-07 12:55 47.52977 12.69127 36985 ft 467 kts 137°
2026-05-07 12:55 47.48547 12.76179 37003 ft 469 kts 137°
2026-05-07 12:56 47.44102 12.83235 37000 ft 468 kts 137°
2026-05-07 12:56 47.39679 12.90239 36995 ft 467 kts 137°
2026-05-07 12:57 47.35239 12.97250 36990 ft 468 kts 137°
2026-05-07 12:57 47.30806 13.04232 37001 ft 466 kts 138°
2026-05-07 12:58 47.27106 13.10046 36992 ft 467 kts 138°
2026-05-07 12:58 47.22670 13.17000 36972 ft 467 kts 138°
2026-05-07 12:59 47.18209 13.23973 36993 ft 468 kts 138°
2026-05-07 12:59 47.13750 13.30923 36947 ft 467 kts 138°
2026-05-07 13:00 47.09300 13.37847 36956 ft 465 kts 139°
2026-05-07 13:00 47.04863 13.44728 36965 ft 465 kts 139°
2026-05-07 13:01 47.00411 13.51615 36962 ft 466 kts 139°
2026-05-07 13:01 46.95947 13.58504 36963 ft 467 kts 139°
2026-05-07 13:02 46.91474 13.65388 36949 ft 466 kts 139°
2026-05-07 13:02 46.87033 13.72205 36945 ft 466 kts 139°
2026-05-07 13:03 46.82563 13.79050 36945 ft 465 kts 139°
2026-05-07 13:03 46.78088 13.85885 36914 ft 465 kts 139°
2026-05-07 13:04 46.73617 13.92693 36924 ft 466 kts 139°
2026-05-07 13:04 46.69130 13.99512 36939 ft 466 kts 139°
2026-05-07 13:05 46.64643 14.06312 36924 ft 465 kts 140°
2026-05-07 13:05 46.60147 14.13109 36920 ft 466 kts 140°
2026-05-07 13:06 46.55661 14.19872 36921 ft 466 kts 140°
2026-05-07 13:06 46.51165 14.26634 36883 ft 465 kts 140°
2026-05-07 13:07 46.46672 14.33374 36923 ft 465 kts 140°
2026-05-07 13:07 46.42166 14.40118 36924 ft 465 kts 140°
2026-05-07 13:08 46.37662 14.46840 36971 ft 466 kts 140°
2026-05-07 13:08 46.33143 14.53568 36968 ft 466 kts 140°
2026-05-07 13:09 46.28633 14.60266 36983 ft 464 kts 140°
2026-05-07 13:09 46.24119 14.66953 36938 ft 463 kts 140°
2026-05-07 13:10 46.19622 14.73598 36965 ft 465 kts 140°
2026-05-07 13:10 46.15101 14.80261 36960 ft 465 kts 140°
2026-05-07 13:11 46.10571 14.86921 36946 ft 465 kts 141°
2026-05-07 13:11 46.06054 14.93548 36953 ft 463 kts 141°
2026-05-07 13:12 46.01575 15.00100 36977 ft 464 kts 141°
2026-05-07 13:12 45.97053 15.06699 36999 ft 463 kts 141°
2026-05-07 13:13 45.92518 15.13303 36960 ft 464 kts 141°
2026-05-07 13:13 45.87984 15.19892 36974 ft 463 kts 141°
2026-05-07 13:14 45.83470 15.26436 36998 ft 462 kts 141°
2026-05-07 13:14 45.78939 15.32988 36981 ft 462 kts 141°
2026-05-07 13:15 45.74540 15.39747 37004 ft 464 kts 139°
2026-05-07 13:15 45.70160 15.46540 36977 ft 463 kts 139°
2026-05-07 13:16 45.65783 15.53302 36985 ft 464 kts 139°
2026-05-07 13:16 45.61390 15.60072 36981 ft 464 kts 139°
2026-05-07 13:17 45.56991 15.66833 36980 ft 465 kts 139°
2026-05-07 13:17 45.52597 15.73570 36981 ft 465 kts 139°
2026-05-07 13:18 45.48191 15.80309 36984 ft 464 kts 139°
2026-05-07 13:18 45.43779 15.87042 36974 ft 465 kts 139°
2026-05-07 13:19 45.39350 15.93782 36994 ft 467 kts 139°
2026-05-07 13:19 45.34950 16.00462 37004 ft 466 kts 139°
2026-05-07 13:20 45.30513 16.07184 36979 ft 466 kts 139°
2026-05-07 13:20 45.26076 16.13888 36994 ft 466 kts 139°
2026-05-07 13:21 45.21637 16.20578 37009 ft 465 kts 139°
2026-05-07 13:21 45.17200 16.27248 37016 ft 466 kts 139°
2026-05-07 13:22 45.12735 16.33945 36986 ft 467 kts 139°
2026-05-07 13:22 45.08269 16.40627 37017 ft 467 kts 139°
2026-05-07 13:23 45.03805 16.47289 37025 ft 466 kts 139°
2026-05-07 13:23 44.99347 16.53927 37021 ft 466 kts 139°
2026-05-07 13:24 44.94882 16.60560 37013 ft 466 kts 139°
2026-05-07 13:24 44.90403 16.67198 37027 ft 466 kts 139°
2026-05-07 13:25 44.85958 16.73767 37029 ft 465 kts 139°
2026-05-07 13:25 44.81502 16.80339 37031 ft 465 kts 139°
2026-05-07 13:26 44.77031 16.86919 37031 ft 465 kts 139°
2026-05-07 13:26 44.72559 16.93488 37052 ft 465 kts 139°
2026-05-07 13:27 44.70195 16.96549 36996 ft 456 kts 150°
2026-05-07 13:27 44.67574 16.99025 37021 ft 456 kts 150°
2026-05-07 13:27 44.62361 17.04103 37043 ft 457 kts 151°
2026-05-07 13:28 44.57111 17.09157 37021 ft 457 kts 151°
2026-05-07 13:28 44.51862 17.14193 37023 ft 457 kts 151°
2026-05-07 13:29 44.46605 17.19225 37046 ft 458 kts 151°
2026-05-07 13:29 44.41344 17.24250 37029 ft 459 kts 151°
2026-05-07 13:30 44.36067 17.29278 37046 ft 459 kts 151°
2026-05-07 13:30 44.30782 17.34304 37051 ft 460 kts 151°
2026-05-07 13:31 44.25501 17.39314 37025 ft 459 kts 151°
2026-05-07 13:31 44.20212 17.44321 37050 ft 461 kts 151°
2026-05-07 13:32 44.14899 17.49339 37061 ft 461 kts 151°
2026-05-07 13:32 44.09613 17.54321 37057 ft 461 kts 151°
2026-05-07 13:33 44.04298 17.59320 37053 ft 462 kts 151°
2026-05-07 13:33 43.98983 17.64307 37058 ft 462 kts 151°
2026-05-07 13:34 43.90975 17.71800 37058 ft 462 kts 151°
2026-05-07 13:35 43.85636 17.76782 37056 ft 462 kts 151°
2026-05-07 13:35 43.80310 17.81742 37068 ft 462 kts 151°
2026-05-07 13:36 43.74964 17.86709 37049 ft 463 kts 151°
2026-05-07 13:36 43.69603 17.91678 37067 ft 464 kts 151°
2026-05-07 13:37 43.64247 17.96633 37074 ft 464 kts 151°
2026-05-07 13:37 43.58926 18.01544 37077 ft 464 kts 151°
2026-05-07 13:38 43.53527 18.06518 37072 ft 464 kts 151°
2026-05-07 13:38 43.48172 18.11437 37092 ft 466 kts 151°
2026-05-07 13:39 43.42772 18.16391 37101 ft 466 kts 151°
2026-05-07 13:39 43.37384 18.21320 37073 ft 466 kts 151°
2026-05-07 13:40 43.31985 18.26250 37092 ft 466 kts 151°
2026-05-07 13:40 43.26577 18.31177 37092 ft 466 kts 151°
2026-05-07 13:41 43.21172 18.36090 37073 ft 466 kts 151°
2026-05-07 13:41 43.18479 18.38535 36882 ft 465 kts 151°
2026-05-07 13:41 43.16693 18.40155 36713 ft 464 kts 151°
2026-05-07 13:41 43.14002 18.42592 36447 ft 464 kts 152°
2026-05-07 13:42 43.11307 18.45032 36169 ft 464 kts 151°
2026-05-07 13:42 43.08614 18.47467 35897 ft 465 kts 151°
2026-05-07 13:42 43.05911 18.49908 35638 ft 466 kts 151°
2026-05-07 13:42 43.03201 18.52352 35390 ft 467 kts 151°
2026-05-07 13:43 43.00488 18.54797 35147 ft 468 kts 151°
2026-05-07 13:43 42.97794 18.57223 34629 ft 464 kts 151°
2026-05-07 13:43 42.95087 18.59657 33865 ft 466 kts 150°
2026-05-07 13:43 42.92376 18.62091 33048 ft 467 kts 150°
2026-05-07 13:44 42.89655 18.64532 32241 ft 468 kts 150°
2026-05-07 13:44 42.86931 18.66974 31429 ft 469 kts 150°
2026-05-07 13:44 42.84196 18.69424 30607 ft 471 kts 150°
2026-05-07 13:44 42.81448 18.71881 29729 ft 473 kts 150°
2026-05-07 13:45 42.78704 18.74333 28803 ft 474 kts 150°
2026-05-07 13:45 42.75943 18.76797 27864 ft 475 kts 150°
2026-05-07 13:45 42.73177 18.79264 26922 ft 476 kts 150°
2026-05-07 13:45 42.70399 18.81738 25988 ft 478 kts 150°
2026-05-07 13:46 42.67616 18.84213 25125 ft 478 kts 150°
2026-05-07 13:46 42.64850 18.86672 24545 ft 471 kts 150°
2026-05-07 13:46 42.62122 18.89092 24006 ft 465 kts 150°
2026-05-07 13:46 42.59466 18.91447 23394 ft 460 kts 150°
2026-05-07 13:47 42.56807 18.93802 22713 ft 456 kts 150°
2026-05-07 13:47 42.54160 18.96145 22064 ft 452 kts 150°
2026-05-07 13:47 42.51539 18.98462 21440 ft 447 kts 150°
2026-05-07 13:47 42.48946 19.00751 20857 ft 443 kts 150°
2026-05-07 13:48 42.46381 19.03015 20302 ft 438 kts 150°
2026-05-07 13:48 42.43836 19.05257 19718 ft 434 kts 150°
2026-05-07 13:48 42.41313 19.07479 19170 ft 431 kts 151°
2026-05-07 13:48 42.38806 19.09684 18626 ft 428 kts 151°
2026-05-07 13:49 42.36328 19.11862 18048 ft 425 kts 151°
2026-05-07 13:49 42.33863 19.14027 17493 ft 421 kts 151°
2026-05-07 13:49 42.31423 19.16167 16934 ft 417 kts 151°
2026-05-07 13:49 42.28998 19.18291 16382 ft 413 kts 151°
2026-05-07 13:50 42.26592 19.20398 15821 ft 410 kts 151°
2026-05-07 13:50 42.24206 19.22485 15281 ft 407 kts 151°
2026-05-07 13:50 42.21836 19.24558 14752 ft 405 kts 151°
2026-05-07 13:50 42.19482 19.26613 14237 ft 402 kts 151°
2026-05-07 13:51 42.17145 19.28654 13759 ft 397 kts 151°
2026-05-07 13:51 42.14852 19.30653 13330 ft 392 kts 151°
2026-05-07 13:51 42.12590 19.32624 12856 ft 380 kts 151°
2026-05-07 13:51 42.10399 19.34531 12369 ft 370 kts 151°
2026-05-07 13:52 42.08280 19.36374 12163 ft 353 kts 151°
2026-05-07 13:52 42.06276 19.38115 12155 ft 334 kts 151°
2026-05-07 13:52 42.04371 19.39769 12025 ft 319 kts 152°
2026-05-07 13:52 42.02534 19.41363 11766 ft 309 kts 152°
2026-05-07 13:53 42.00744 19.42916 11551 ft 302 kts 152°
2026-05-07 13:53 41.98989 19.44435 11270 ft 299 kts 152°
2026-05-07 13:53 41.97112 19.45459 10974 ft 287 kts 174°
2026-05-07 13:53 41.95154 19.45935 10624 ft 287 kts 173°
2026-05-07 13:54 41.93208 19.46421 10331 ft 284 kts 173°
2026-05-07 13:54 41.91293 19.46888 10040 ft 282 kts 173°
2026-05-07 13:54 41.89368 19.47353 9700 ft 280 kts 173°
2026-05-07 13:54 41.87450 19.47812 9387 ft 279 kts 173°
2026-05-07 13:55 41.85543 19.48267 9091 ft 278 kts 173°
2026-05-07 13:55 41.83640 19.48719 8764 ft 277 kts 173°
2026-05-07 13:55 41.81750 19.49169 8444 ft 275 kts 173°
2026-05-07 13:55 41.79863 19.49617 8109 ft 274 kts 173°
2026-05-07 13:56 41.77989 19.50062 7778 ft 273 kts 173°
2026-05-07 13:56 41.76114 19.50507 7454 ft 272 kts 172°
2026-05-07 13:56 41.74254 19.50947 7142 ft 271 kts 172°
2026-05-07 13:56 41.72400 19.51387 6854 ft 269 kts 172°
2026-05-07 13:57 41.70594 19.51815 6602 ft 259 kts 172°
2026-05-07 13:57 41.68850 19.52227 6305 ft 251 kts 172°
2026-05-07 13:57 41.67157 19.52627 6002 ft 243 kts 172°
2026-05-07 13:57 41.65569 19.53313 5613 ft 244 kts 149°
2026-05-07 13:58 41.64416 19.54966 5227 ft 248 kts 119°
2026-05-07 13:58 41.64012 19.57199 4847 ft 252 kts 92°
2026-05-07 13:58 41.64167 19.59521 4528 ft 248 kts 87°
2026-05-07 13:58 41.64332 19.61786 4278 ft 241 kts 87°
2026-05-07 13:59 41.64494 19.63979 4129 ft 233 kts 87°
2026-05-07 13:59 41.64393 19.66080 3938 ft 222 kts 112°
2026-05-07 13:59 41.63591 19.67714 3833 ft 202 kts 142°
2026-05-07 13:59 41.62432 19.68634 3712 ft 188 kts 159°
2026-05-07 14:00 41.61207 19.69153 3545 ft 183 kts 168°
2026-05-07 14:00 41.59974 19.69422 3383 ft 181 kts 173°
2026-05-07 14:00 41.58707 19.69624 3172 ft 181 kts 174°
2026-05-07 14:00 41.57473 19.69801 2984 ft 180 kts 174°
2026-05-07 14:01 41.56227 19.69976 2766 ft 180 kts 174°
2026-05-07 14:01 41.54989 19.70152 2534 ft 176 kts 174°
2026-05-07 14:01 41.53833 19.70318 2343 ft 162 kts 174°
2026-05-07 14:01 41.52732 19.70469 2112 ft 155 kts 174°
2026-05-07 14:02 41.51675 19.70614 1930 ft 150 kts 175°
2026-05-07 14:02 41.50648 19.70758 1759 ft 147 kts 174°
2026-05-07 14:02 41.49627 19.70905 1525 ft 146 kts 175°
2026-05-07 14:02 41.48619 19.71048 1342 ft 148 kts 174°
2026-05-07 14:03 41.47592 19.71199 1139 ft 149 kts 173°
2026-05-07 14:03 41.46557 19.71367 971 ft 149 kts 174°
2026-05-07 14:03 41.45540 19.71514 754 ft 146 kts 176°
2026-05-07 14:03 41.44518 19.71658 534 ft 150 kts 176°
2026-05-07 14:04 41.43481 19.71795 323 ft 149 kts 176°
2026-05-07 14:04 41.42450 19.71932 145 ft 147 kts 178°
2026-05-07 14:04 41.41526 19.72050 126 ft 109 kts 174°
2026-05-07 14:04 41.40981 19.72121 136 ft 48 kts 174°
2026-05-07 14:05 41.40739 19.72155 136 ft 16 kts 175°
2026-05-07 14:05 41.40673 19.72060 135 ft 15 kts 256°
2026-05-07 14:05 41.40652 19.71940 134 ft 13 kts 257°
2026-05-07 14:05 41.40635 19.71822 134 ft 11 kts 273°
2026-05-07 14:06 41.40697 19.71768 134 ft 13 kts 353°
2026-05-07 14:06 41.40792 19.71752 134 ft 15 kts 351°
2026-05-07 14:06 41.40902 19.71726 134 ft 17 kts 348°
2026-05-07 14:06 41.41028 19.71705 133 ft 19 kts 354°
2026-05-07 14:07 41.41171 19.71685 132 ft 22 kts 354°
2026-05-07 14:07 41.41329 19.71664 130 ft 24 kts 355°
2026-05-07 14:07 41.41497 19.71642 129 ft 10 kts 353°
2026-05-07 14:07 41.41574 19.71631 127 ft 13 kts 354°
2026-05-07 14:08 41.41671 19.71618 127 ft 16 kts 354°
2026-05-07 14:08 41.41776 19.71604 124 ft 11 kts 354°
2026-05-07 14:08 41.41861 19.71591 122 ft 13 kts 353°
2026-05-07 14:08 41.41956 19.71580 122 ft 13 kts 354°
2026-05-07 14:09 41.42028 19.71570 125 ft 9 kts 354°
2026-05-07 14:09 41.42065 19.71560 124 ft 1 kts 317°
2026-05-07 14:09 41.42067 19.71548 122 ft 2 kts 277°
2026-05-07 14:09 41.42066 19.71518 124 ft 2 kts 265°
2026-05-07 14:10 41.42066 19.71505 124 ft 1 kts 265°
2026-05-07 14:10 41.42065 19.71499 123 ft 0 kts 265°
2026-05-07 14:10 41.42065 19.71498 123 ft 0 kts 265°